SCP
0 -0 -0 -0 -0 0 0 0 0 0 0 0 0 0 0 0 0 0 0 0 0 0 0 0 0 0 0 0 0 0 0 0 0 0 0 0 0 0 0 0 0 0 0 0
-0 -0 -0 -0 -0 -0 -0 -0 0 0 0 0 0 0 0 0 0 0 0 0 0 0 0 0 0 0 0 0 0 0 0 0 0 0 0 0 0 0 0 0 0 0 0 0
-0 -0 -0 -0 0 0 0 0 0 0 0 0 0 0 0 0 0 0 0 0 0 0 0 0 0 0 0 0 0 0 0 0 0 0 0 0 0 0 0 0 0 0 0 0
0 0 -0 0 0 0 0 0 0 0 0 0 0 0 0 0 0 0 0 0 0 0 0 0 0 0 0 0 0 0 0 0 0 0 0 0 0 0 0 0 0 0 0 0
0 0 0 -0 0 0 0 0 0 0 0 0 0 0 0 0 0 0 0 0 0 0 0 0 0 0 0 0 0 0 0 0 0 0 0 0 0 0 0 0 0 0 0 0
0 0 0 0 0 0 0 0 0 0 0 0 0 0 0 0 0 0 0 0 0 0 0 0 0 0 0 0 0 0 0 0 0 0 0 0 0 0 0 0 0 0 0 0
0 0 0 0 0 0 0 0 0 0 0 0 0 0 0 0 0 0 0 0 0 0 0 0 0 0 0 0 0 0 0 0 0 0 0 0 0 0 0 0 0 0 0 0
0 0 0 0 0 0 0 0 0 0 0 0 0 0 0 0 0 0 0 0 0 0 0 0 0 0 0 0 0 0 0 0 0 0 0 0 0 0 0 0 0 0 0 0
0 0 0 0 0 0 0 0 0 0 0 0 0 0 0 0 0 0 0 0 0 0 0 0 0 0 0 0 0 0 0 0 0 0 0 0 0 0 0 0 0 0 0 0
0 0 0 0 0 0 0 0 0 0 0 0 0 0 0 0 0 0 0 0 0 0 0 0 0 0 0 0 0 0 0 0 0 0 0 0 0 0 0 0 0 0 0 0
0 0 0 0 0 0 0 0 0 0 0 0 0 0 0 0 0 0 0 0 0 0 0 0 0 0 0 0 0 0 0 0 0 0 0 0 0 0 0 0 0 0 0 0
0 0 0 0 0 0 0 0 0 0 0 0 0 0 0 0 0 0 0 0 0 0 0 0 0 0 0 0 0 0 0 0 0 0 0 0 0 0 0 0 0 0 0 0
0 0 0 0 0 0 0 0 0 0 0 0 0 0 0 0 0 0 0 0 0 0 0 0 0 0 0 0 0 0 0 0 0 0 0 0 0 0 0 0 0 0 0 0
0 0 0 0 0 0 0 0 0 0 0 0 0 0 0 0 0 0 0 0 0 0 0 0 0 0 0 0 0 0 0 0 0 0 0 0 0 0 0 0 0 0 0 0
0 0 0 0 0 0 0 0 0 0 0 0 0 0 0 0 0 0 0 0 0 0 0 0 0 0 0 0 0 0 0 0 0 0 0 0 0 0 0 0 0 0 0 0
0 0 0 0 0 0 0 0 0 0 0 0 0 0 0 0 0 0 0 0 0 0 0 0 0 0 0 0 0 0 0 0 0 0 0 0 0 0 0 0 0 0 0 0
0 0 0 0 0 0 0 0 0 0 0 0 0 0 0 0 0 0 0 0 0 0 0 0 0 0 0 0 0 0 0 0 0 0 0 0 0 0 0 0 0 0 0 0
0 0 0 0 0 0 0 0 0 0 0 0 0 0 0 0 0 0 0 0 0 0 0 0 0 0 0 0 0 0 0 0 0 0 0 0 0 0 0 0 0 0 0 0
0 0 0 0 0 0 0 0 0 0 0 0 0 0 0 0 0 0 0 0 0 0 0 0 0 0 0 0 0 0 0 0 0 0 0 0 0 0 0 0 0 0 0 0
0 0 0 0 0 0 0 0 0 0 0 0 0 0 0 0 0 0 0 0 0 0 0 0 0 0 0 0 0 0 0 0 0 0 0 0 0 0 0 0 0 0 0 0
0 0 0 0 0 0 0 0 0 0 0 0 0 0 0 0 0 0 0 0 0 0 0 0 0 0 0 0 0 0 0 0 0 0 0 0 0 0 0 0 0 0 0 0
0 0 0 0 0 0 0 0 0 0 0 0 0 0 0 0 0 0 0 0 0 0 0 0 0 0 0 0 0 0 0 0 0 0 0 0 0 0 0 0 0 0 0 0
0 0 0 0 0 0 0 0 0 0 0 0 0 0 0 0 0 0 0 0 0 0 0 0 0 0 0 0 0 0 0 0 0 0 0 0 0 0 0 0 0 0 0 0
0 0 0 0 0 0 0 0 0 0 0 0 0 0 0 0 0 0 0 0 0 0 0 0 0 0 0 0 0 0 0 0 0 0 0 0 0 0 0 0 0 0 0 0
0 0 0 0 0 0 0 0 0 0 0 0 0 0 0 0 0 0 0 0 0 0 0 0 0 0 0 0 0 0 0 0 0 0 0 0 0 0 0 0 0 0 0 0
0 0 0 0 0 0 0 0 0 0 0 0 0 0 0 0 0 0 0 0 0 0 0 0 0 0 0 0 0 0 0 0 0 0 0 0 0 0 0 0 0 0 0 0
0 0 0 0 0 0 0 0 0 0 0 0 0 0 0 0 0 0 0 0 0 0 0 0 0 0 0 0 0 0 0 0 0 0 0 0 0 0 0 0 0 0 0 0
Wind_Speed_500mb
10 13 10 11 11 14 17 9 11 8 14 11 17 23 53 63 61 55 51 46 41 36 27 20 17 14 11 9 6 5 6 7 10 14 17 19 20 23 25 26 27 29 30 29
8 7 12 12 16 18 18 12 17 11 32 18 14 35 31 55 64 62 58 53 47 38 32 25 22 19 15 11 9 7 3 2 7 11 13 16 19 22 24 25 27 29 31 33
8 6 9 16 26 30 12 12 16 18 19 12 13 26 53 66 72 70 61 56 52 44 33 27 21 17 15 13 10 7 4 3 7 11 13 16 19 21 24 26 29 30 31 32
5 6 7 12 6 6 21 14 23 9 9 19 21 32 41 54 74 65 56 54 50 43 34 29 23 21 18 16 13 10 6 6 9 10 13 16 20 24 27 29 32 33 32 32
6 7 15 9 6 11 13 13 19 27 11 14 15 16 12 31 51 58 54 49 45 36 32 28 24 22 18 17 15 12 9 9 12 14 16 20 25 29 34 36 36 35 35 34
4 6 12 8 5 5 5 11 6 13 19 22 19 6 9 34 38 46 45 41 38 35 29 25 23 21 20 18 16 13 11 11 13 17 22 28 33 35 37 37 37 36 34 32
9 8 15 14 11 12 5 9 6 7 16 43 12 18 16 37 41 43 41 39 35 30 25 23 23 21 19 18 16 13 12 13 15 21 26 29 31 32 33 32 32 32 31 30
7 7 17 19 11 13 9 7 6 8 12 44 39 16 23 43 45 44 41 37 31 27 25 24 23 21 19 17 15 14 14 16 20 24 27 29 31 31 32 33 34 35 36 34
20 13 9 44 13 31 9 9 13 15 17 24 31 30 35 43 43 41 37 32 28 25 25 24 23 21 19 16 15 15 18 22 25 27 28 29 31 33 33 34 37 39 41 43
4 12 27 31 49 30 29 29 21 20 21 26 36 37 41 42 43 41 38 34 29 28 27 25 22 18 16 16 17 20 24 28 29 30 31 31 32 33 35 35 39 42 43 45
9 15 15 26 42 53 42 34 30 27 30 30 40 43 45 45 43 39 35 32 30 27 25 22 19 18 18 19 21 25 29 31 32 34 36 38 37 38 39 36 40 43 43 44
14 23 18 15 15 30 48 49 43 38 37 39 43 44 46 43 40 37 35 31 28 25 22 20 19 19 18 19 24 29 34 35 36 38 38 40 43 45 38 42 40 39 40 44
48 47 40 31 31 26 25 33 41 38 38 39 40 39 40 40 37 33 30 28 25 21 19 19 19 20 18 23 29 32 36 37 38 38 40 42 45 49 55 47 45 46 43 46
66 57 30 40 25 24 27 29 33 34 35 33 33 36 36 37 37 33 29 24 22 17 19 24 24 22 20 27 31 34 37 38 42 43 44 45 47 49 52 55 57 55 47 50
51 48 43 36 35 28 28 33 38 40 37 35 35 36 37 37 34 29 24 19 22 27 26 25 27 24 24 30 35 37 40 42 43 46 45 45 47 48 49 50 53 57 58 56
44 41 40 45 47 42 40 41 41 43 43 41 40 37 35 32 27 21 21 26 28 28 27 30 30 24 28 33 38 41 42 44 46 48 47 46 45 45 47 50 55 60 66 69
17 27 37 40 40 41 43 40 35 34 35 34 33 34 31 22 20 24 27 24 29 32 32 32 30 29 34 39 43 47 48 49 47 51 51 49 50 52 54 58 63 68 74 75
41 42 38 40 40 39 38 33 30 33 35 34 28 20 20 24 25 23 24 26 31 36 35 31 35 38 41 42 45 49 53 55 55 56 55 55 56 57 60 64 69 74 78 80
25 23 23 24 26 30 31 30 30 30 27 23 23 24 22 22 23 24 26 32 37 42 36 35 39 42 45 41 42 48 53 57 61 63 60 59 61 63 66 69 73 74 74 64
13 17 15 12 17 22 28 30 28 22 23 22 18 18 17 15 18 25 31 40 42 43 45 46 46 47 45 44 45 50 53 56 60 64 64 64 67 70 72 75 74 70 60 62
3 6 10 13 20 20 19 18 24 24 19 15 16 19 24 29 33 38 45 53 55 48 48 51 52 51 46 45 47 51 55 59 62 64 63 66 69 70 73 74 68 63 61 66
4 10 11 11 13 16 19 21 20 16 17 21 28 34 40 48 49 50 51 57 60 52 53 55 50 44 45 47 54 59 63 65 64 62 62 62 64 66 64 65 64 58 58 61
6 6 7 10 13 13 14 17 20 26 34 39 42 44 48 51 53 56 65 62 55 49 47 50 48 47 48 53 60 64 66 64 62 60 59 60 60 57 57 56 56 59 67 69
7 8 10 14 20 25 31 32 37 40 41 45 49 49 49 53 56 52 49 52 51 51 54 57 55 54 52 57 61 61 62 61 59 57 57 53 54 51 51 55 60 62 64 66
17 19 21 24 29 33 37 39 46 50 50 51 48 43 41 44 51 59 56 58 59 58 61 60 55 52 52 54 55 58 58 55 53 52 51 50 48 46 49 51 54 57 55 57
30 33 35 36 39 40 41 41 44 44 41 47 52 53 54 55 56 58 58 58 57 56 56 57 54 48 47 50 52 53 52 51 48 48 47 43 46 51 56 58 58 56 52 49
30 31 33 34 30 32 37 41 46 52 52 56 62 63 62 59 57 55 54 54 52 51 50 50 49 48 48 49 51 51 49 47 46 44 45 48 50 54 59 61 58 52 47 47
Wind_Direction_500mb
256 240 209 211 210 186 200 202 179 272 215 257 212 197 198 194 190 192 192 191 196 201 206 218 227 235 242 251 270 303 328 348 1 8 9 3 360 359 356 351 347 342 334 328
281 288 243 263 241 221 220 219 253 248 265 212 217 209 200 200 195 197 197 199 202 205 213 220 224 226 228 226 225 229 253 341 13 6 3 358 358 359 357 355 352 350 344 339
260 335 328 289 231 211 197 209 187 203 227 169 209 202 202 204 203 204 202 200 204 211 216 219 219 216 215 219 223 218 238 321 343 346 347 348 349 347 345 346 345 344 342 339
254 3 247 243 169 187 217 238 219 259 210 204 215 223 225 216 207 206 203 202 205 208 211 212 212 211 215 217 220 225 256 296 313 323 329 335 337 337 336 335 334 333 332 330
202 206 293 285 211 179 176 274 211 227 206 210 184 169 212 213 216 212 205 206 206 207 206 208 210 211 216 218 221 228 255 282 304 316 324 326 326 326 326 324 322 321 322 323
147 212 235 236 178 163 143 287 184 185 205 175 168 172 246 198 192 194 197 198 200 200 206 210 210 213 216 219 224 234 262 284 301 311 319 322 324 324 324 323 323 321 318 317
203 242 285 248 164 145 145 247 195 220 210 182 190 207 227 188 185 191 193 193 196 202 208 210 213 216 218 222 232 248 268 288 304 310 312 314 319 324 325 324 323 321 320 324
154 193 268 162 114 177 210 172 212 205 195 196 208 207 190 183 182 185 188 192 198 206 208 211 213 215 219 231 244 258 275 289 298 306 312 316 317 320 321 320 320 321 322 323
186 210 242 190 211 211 216 224 213 219 219 212 208 187 181 183 188 192 197 200 205 209 209 212 215 219 227 239 251 266 282 294 301 305 309 312 314 314 316 315 317 320 321 323
145 232 235 239 227 243 234 235 235 230 232 222 212 198 193 191 191 196 199 202 202 203 207 212 217 226 239 251 267 283 291 293 298 303 305 308 309 312 312 312 312 316 319 320
257 282 272 264 244 243 237 233 239 236 232 232 215 208 207 203 202 203 203 200 200 203 206 211 219 232 249 267 279 286 290 298 305 307 307 306 305 308 308 307 309 313 316 318
245 228 228 238 269 249 239 241 241 242 229 221 221 220 214 211 209 205 203 201 202 204 207 215 227 243 266 283 288 290 292 298 302 302 302 302 302 300 296 300 299 300 307 313
251 267 259 261 257 244 243 250 241 235 237 231 223 222 216 210 205 202 200 202 203 210 223 236 251 261 278 283 283 287 293 297 298 299 301 303 302 302 303 297 290 294 295 299
251 255 248 246 247 252 247 242 237 234 231 231 230 215 212 204 196 199 199 200 207 222 243 253 263 274 280 278 283 289 292 295 297 300 300 300 301 300 299 298 297 295 292 297
252 254 248 258 263 250 248 260 238 227 220 213 209 208 198 194 192 188 196 222 232 236 246 259 269 278 279 282 287 291 294 296 295 294 295 296 297 298 298 297 296 298 301 301
251 248 246 250 259 258 245 224 219 215 215 205 195 190 187 184 184 212 215 230 239 248 258 265 272 284 279 281 285 287 290 292 292 293 293 294 295 295 297 297 298 299 300 303
223 245 247 248 248 238 225 224 225 220 199 193 186 181 182 227 212 216 234 249 262 268 270 274 283 283 282 283 288 291 291 290 290 289 289 290 290 292 295 297 299 302 303 304
264 263 267 263 254 232 220 215 209 197 190 182 190 214 205 219 233 245 259 264 267 271 276 286 289 289 288 290 291 290 288 288 288 287 286 285 287 289 292 296 300 303 304 302
243 251 260 249 236 221 215 200 186 181 200 201 198 211 223 241 261 272 274 274 275 281 290 295 293 288 288 291 291 290 289 289 288 286 285 285 286 288 292 297 300 301 306 304
249 255 248 221 199 198 186 181 208 190 196 199 209 233 254 273 287 289 289 285 285 291 299 300 296 290 290 288 287 287 290 292 291 288 285 284 286 290 293 296 298 299 300 301
215 208 200 187 169 183 200 196 194 193 195 220 249 270 286 291 295 300 299 297 294 299 295 293 291 285 281 281 284 287 291 292 290 288 287 287 289 291 292 293 295 297 297 297
198 223 235 220 203 196 192 195 201 219 245 266 277 284 289 291 292 293 290 289 298 300 294 290 288 280 278 282 285 291 294 294 292 289 287 288 289 291 292 294 298 300 298 298
273 260 242 227 218 216 221 237 254 270 278 282 285 286 287 290 291 291 293 298 299 297 294 293 294 286 279 281 287 292 294 294 292 290 288 288 289 292 295 298 298 294 292 296
318 298 278 262 257 259 263 268 274 277 281 286 288 290 290 290 289 287 289 290 292 293 290 288 286 284 285 285 287 290 291 290 288 287 286 289 291 292 294 295 295 298 298 298
298 288 281 277 274 274 277 281 283 283 286 287 289 291 292 290 287 291 290 289 288 287 285 285 286 285 283 284 286 287 287 284 284 285 286 286 287 289 293 299 302 303 301 299
302 297 293 292 291 292 293 293 290 290 290 292 294 295 293 292 290 290 291 291 291 291 288 287 286 284 284 286 287 286 283 282 283 281 279 280 286 291 294 296 299 303 301 300
306 304 302 299 300 303 300 296 293 291 291 292 293 293 295 294 295 295 295 297 297 294 291 289 286 286 285 287 289 288 284 280 281 282 283 285 287 291 293 293 298 298 295 297
Wind_Speed_850mb
10 13 10 11 11 14 17 9 11 8 14 11 17 23 53 63 61 55 51 46 41 36 27 20 17 14 11 9 6 5 6 7 10 14 17 19 20 23 25 26 27 29 30 29
8 7 12 12 16 18 18 12 17 11 32 18 14 35 31 55 64 62 58 53 47 38 32 25 22 19 15 11 9 7 3 2 7 11 13 16 19 22 24 25 27 29 31 33
8 6 9 16 26 30 12 12 16 18 19 12 13 26 53 66 72 70 61 56 52 44 33 27 21 17 15 13 10 7 4 3 7 11 13 16 19 21 24 26 29 30 31 32
5 6 7 12 6 6 21 14 23 9 9 19 21 32 41 54 74 65 56 54 50 43 34 29 23 21 18 16 13 10 6 6 9 10 13 16 20 24 27 29 32 33 32 32
6 7 15 9 6 11 13 13 19 27 11 14 15 16 12 31 51 58 54 49 45 36 32 28 24 22 18 17 15 12 9 9 12 14 16 20 25 29 34 36 36 35 35 34
4 6 12 8 5 5 5 11 6 13 19 22 19 6 9 34 38 46 45 41 38 35 29 25 23 21 20 18 16 13 11 11 13 17 22 28 33 35 37 37 37 36 34 32
9 8 15 14 11 12 5 9 6 7 16 43 12 18 16 37 41 43 41 39 35 30 25 23 23 21 19 18 16 13 12 13 15 21 26 29 31 32 33 32 32 32 31 30
7 7 17 19 11 13 9 7 6 8 12 44 39 16 23 43 45 44 41 37 31 27 25 24 23 21 19 17 15 14 14 16 20 24 27 29 31 31 32 33 34 35 36 34
20 13 9 44 13 31 9 9 13 15 17 24 31 30 35 43 43 41 37 32 28 25 25 24 23 21 19 16 15 15 18 22 25 27 28 29 31 33 33 34 37 39 41 43
4 12 27 31 49 30 29 29 21 20 21 26 36 37 41 42 43 41 38 34 29 28 27 25 22 18 16 16 17 20 24 28 29 30 31 31 32 33 35 35 39 42 43 45
9 15 15 26 42 53 42 34 30 27 30 30 40 43 45 45 43 39 35 32 30 27 25 22 19 18 18 19 21 25 29 31 32 34 36 38 37 38 39 36 40 43 43 44
14 23 18 15 15 30 48 49 43 38 37 39 43 44 46 43 40 37 35 31 28 25 22 20 19 19 18 19 24 29 34 35 36 38 38 40 43 45 38 42 40 39 40 44
48 47 40 31 31 26 25 33 41 38 38 39 40 39 40 40 37 33 30 28 25 21 19 19 19 20 18 23 29 32 36 37 38 38 40 42 45 49 55 47 45 46 43 46
66 57 30 40 25 24 27 29 33 34 35 33 33 36 36 37 37 33 29 24 22 17 19 24 24 22 20 27 31 34 37 38 42 43 44 45 47 49 52 55 57 55 47 50
51 48 43 36 35 28 28 33 38 40 37 35 35 36 37 37 34 29 24 19 22 27 26 25 27 24 24 30 35 37 40 42 43 46 45 45 47 48 49 50 53 57 58 56
44 41 40 45 47 42 40 41 41 43 43 41 40 37 35 32 27 21 21 26 28 28 27 30 30 24 28 33 38 41 42 44 46 48 47 46 45 45 47 50 55 60 66 69
17 27 37 40 40 41 43 40 35 34 35 34 33 34 31 22 20 24 27 24 29 32 32 32 30 29 34 39 43 47 48 49 47 51 51 49 50 52 54 58 63 68 74 75
41 42 38 40 40 39 38 33 30 33 35 34 28 20 20 24 25 23 24 26 31 36 35 31 35 38 41 42 45 49 53 55 55 56 55 55 56 57 60 64 69 74 78 80
25 23 23 24 26 30 31 30 30 30 27 23 23 24 22 22 23 24 26 32 37 42 36 35 39 42 45 41 42 48 53 57 61 63 60 59 61 63 66 69 73 74 74 64
13 17 15 12 17 22 28 30 28 22 23 22 18 18 17 15 18 25 31 40 42 43 45 46 46 47 45 44 45 50 53 56 60 64 64 64 67 70 72 75 74 70 60 62
3 6 10 13 20 20 19 18 24 24 19 15 16 19 24 29 33 38 45 53 55 48 48 51 52 51 46 45 47 51 55 59 62 64 63 66 69 70 73 74 68 63 61 66
4 10 11 11 13 16 19 21 20 16 17 21 28 34 40 48 49 50 51 57 60 52 53 55 50 44 45 47 54 59 63 65 64 62 62 62 64 66 64 65 64 58 58 61
6 6 7 10 13 13 14 17 20 26 34 39 42 44 48 51 53 56 65 62 55 49 47 50 48 47 48 53 60 64 66 64 62 60 59 60 60 57 57 56 56 59 67 69
7 8 10 14 20 25 31 32 37 40 41 45 49 49 49 53 56 52 49 52 51 51 54 57 55 54 52 57 61 61 62 61 59 57 57 53 54 51 51 55 60 62 64 66
17 19 21 24 29 33 37 39 46 50 50 51 48 43 41 44 51 59 56 58 59 58 61 60 55 52 52 54 55 58 58 55 53 52 51 50 48 46 49 51 54 57 55 57
30 33 35 36 39 40 41 41 44 44 41 47 52 53 54 55 56 58 58 58 57 56 56 57 54 48 47 50 52 53 52 51 48 48 47 43 46 51 56 58 58 56 52 49
30 31 33 34 30 32 37 41 46 52 52 56 62 63 62 59 57 55 54 54 52 51 50 50 49 48 48 49 51 51 49 47 46 44 45 48 50 54 59 61 58 52 47 47
Wind_Direction_850mb
256 240 209 211 210 186 200 202 179 272 215 257 212 197 198 194 190 192 192 191 196 201 206 218 227 235 242 251 270 303 328 348 1 8 9 3 360 359 356 351 347 342 334 328
281 288 243 263 241 221 220 219 253 248 265 212 217 209 200 200 195 197 197 199 202 205 213 220 224 226 228 226 225 229 253 341 13 6 3 358 358 359 357 355 352 350 344 339
260 335 328 289 231 211 197 209 187 203 227 169 209 202 202 204 203 204 202 200 204 211 216 219 219 216 215 219 223 218 238 321 343 346 347 348 349 347 345 346 345 344 342 339
254 3 247 243 169 187 217 238 219 259 210 204 215 223 225 216 207 206 203 202 205 208 211 212 212 211 215 217 220 225 256 296 313 323 329 335 337 337 336 335 334 333 332 330
202 206 293 285 211 179 176 274 211 227 206 210 184 169 212 213 216 212 205 206 206 207 206 208 210 211 216 218 221 228 255 282 304 316 324 326 326 326 326 324 322 321 322 323
147 212 235 236 178 163 143 287 184 185 205 175 168 172 246 198 192 194 197 198 200 200 206 210 210 213 216 219 224 234 262 284 301 311 319 322 324 324 324 323 323 321 318 317
203 242 285 248 164 145 145 247 195 220 210 182 190 207 227 188 185 191 193 193 196 202 208 210 213 216 218 222 232 248 268 288 304 310 312 314 319 324 325 324 323 321 320 324
154 193 268 162 114 177 210 172 212 205 195 196 208 207 190 183 182 185 188 192 198 206 208 211 213 215 219 231 244 258 275 289 298 306 312 316 317 320 321 320 320 321 322 323
186 210 242 190 211 211 216 224 213 219 219 212 208 187 181 183 188 192 197 200 205 209 209 212 215 219 227 239 251 266 282 294 301 305 309 312 314 314 316 315 317 320 321 323
145 232 235 239 227 243 234 235 235 230 232 222 212 198 193 191 191 196 199 202 202 203 207 212 217 226 239 251 267 283 291 293 298 303 305 308 309 312 312 312 312 316 319 320
257 282 272 264 244 243 237 233 239 236 232 232 215 208 207 203 202 203 203 200 200 203 206 211 219 232 249 267 279 286 290 298 305 307 307 306 305 308 308 307 309 313 316 318
245 228 228 238 269 249 239 241 241 242 229 221 221 220 214 211 209 205 203 201 202 204 207 215 227 243 266 283 288 290 292 298 302 302 302 302 302 300 296 300 299 300 307 313
251 267 259 261 257 244 243 250 241 235 237 231 223 222 216 210 205 202 200 202 203 210 223 236 251 261 278 283 283 287 293 297 298 299 301 303 302 302 303 297 290 294 295 299
251 255 248 246 247 252 247 242 237 234 231 231 230 215 212 204 196 199 199 200 207 222 243 253 263 274 280 278 283 289 292 295 297 300 300 300 301 300 299 298 297 295 292 297
252 254 248 258 263 250 248 260 238 227 220 213 209 208 198 194 192 188 196 222 232 236 246 259 269 278 279 282 287 291 294 296 295 294 295 296 297 298 298 297 296 298 301 301
251 248 246 250 259 258 245 224 219 215 215 205 195 190 187 184 184 212 215 230 239 248 258 265 272 284 279 281 285 287 290 292 292 293 293 294 295 295 297 297 298 299 300 303
223 245 247 248 248 238 225 224 225 220 199 193 186 181 182 227 212 216 234 249 262 268 270 274 283 283 282 283 288 291 291 290 290 289 289 290 290 292 295 297 299 302 303 304
264 263 267 263 254 232 220 215 209 197 190 182 190 214 205 219 233 245 259 264 267 271 276 286 289 289 288 290 291 290 288 288 288 287 286 285 287 289 292 296 300 303 304 302
243 251 260 249 236 221 215 200 186 181 200 201 198 211 223 241 261 272 274 274 275 281 290 295 293 288 288 291 291 290 289 289 288 286 285 285 286 288 292 297 300 301 306 304
249 255 248 221 199 198 186 181 208 190 196 199 209 233 254 273 287 289 289 285 285 291 299 300 296 290 290 288 287 287 290 292 291 288 285 284 286 290 293 296 298 299 300 301
215 208 200 187 169 183 200 196 194 193 195 220 249 270 286 291 295 300 299 297 294 299 295 293 291 285 281 281 284 287 291 292 290 288 287 287 289 291 292 293 295 297 297 297
198 223 235 220 203 196 192 195 201 219 245 266 277 284 289 291 292 293 290 289 298 300 294 290 288 280 278 282 285 291 294 294 292 289 287 288 289 291 292 294 298 300 298 298
273 260 242 227 218 216 221 237 254 270 278 282 285 286 287 290 291 291 293 298 299 297 294 293 294 286 279 281 287 292 294 294 292 290 288 288 289 292 295 298 298 294 292 296
318 298 278 262 257 259 263 268 274 277 281 286 288 290 290 290 289 287 289 290 292 293 290 288 286 284 285 285 287 290 291 290 288 287 286 289 291 292 294 295 295 298 298 298
298 288 281 277 274 274 277 281 283 283 286 287 289 291 292 290 287 291 290 289 288 287 285 285 286 285 283 284 286 287 287 284 284 285 286 286 287 289 293 299 302 303 301 299
302 297 293 292 291 292 293 293 290 290 290 292 294 295 293 292 290 290 291 291 291 291 288 287 286 284 284 286 287 286 283 282 283 281 279 280 286 291 294 296 299 303 301 300
306 304 302 299 300 303 300 296 293 291 291 292 293 293 295 294 295 295 295 297 297 294 291 289 286 286 285 287 289 288 284 280 281 282 283 285 287 291 293 293 298 298 295 297